Regional Weather Roundup
Issued by NWS

Home | Current Version | Previous Version | Text Only | Print | Product List | Glossary Off
Versions: 1 2 3 4 5 6 7 8 9 10 11 12 13 14 15 16 17 18 19 20 21 22 23 24 25 26 27 28 29 30 31 32 33 34 35 36 37 38 39 40 41 42 43 44 45 46 47 48 49 50

000
ASUS44 KMEG 290900
RWRTN
TENNESSEE HOURLY STATE WEATHER ROUNDUP
NATIONAL WEATHER SERVICE MEMPHIS TN
400 AM CDT WED JUL 29 2015

TNZ002-004-019-021-049-052-054-088>092-291000-
WEST TENNESSEE

CITY           SKY/WX    TMP DP  RH WIND       PRES   REMARKS
MEMPHIS INTL   CLEAR     83  75  77 W3        29.97R HX  90
NWS MEMPHIS      N/A     78 N/A N/A MISG        N/A
JACKSON        PTCLDY    76  72  87 S3        29.97R
DYERSBURG        N/A    N/A N/A N/A MISG        N/A
PARIS          PTCLDY    72  70  94 CALM      29.99R
$$

TNZ008-025-027-028-033-062-065-066-291000-
NORTH MIDDLE TENNESSEE

CITY           SKY/WX    TMP DP  RH WIND       PRES   REMARKS
NASHVILLE      MOCLDY    74  74 100 CALM      29.99R
CLARKSVILLE    CLEAR     72  71  97 CALM      29.98R
CROSSVILLE     PTCLDY    71  67  87 CALM      30.06R
$$

TNZ061-075-076-078-094-096-097-291000-
SOUTH MIDDLE TENNESSEE

CITY           SKY/WX    TMP DP  RH WIND       PRES   REMARKS
FAYETTEVILLE   CLEAR     73  72  94 E6        30.00S
TULLAHOMA      CLEAR     73  72  94 CALM      30.02F
WINCHESTER     CLOUDY    73  72  94 CALM      30.02S
MCMINNVILLE    CLOUDY    73  73 100 SE3       30.01S
SHELBYVILLE    CLEAR     75  73  94 CALM      30.00F
$$

TNZ017-018-042-046-047-291000-
NORTHEAST TENNESSEE

CITY           SKY/WX    TMP DP  RH WIND       PRES   REMARKS
TRI CITIES     PTCLDY    69  68  96 CALM      30.03R FOG
$$

TNZ012-013-036-069-073-074-291000-
CENTRAL EAST TENNESSEE

CITY           SKY/WX    TMP DP  RH WIND       PRES   REMARKS
KNOXVILLE      PTCLDY    75  72  90 SE5       29.98F
OAK RIDGE      CLEAR     74  71  91 CALM      29.99F
GATLINBURG     SUNNY     72  70  94 CALM      29.99F
$$

TNZ083-085-099-291000-
SOUTHEAST TENNESSEE

CITY           SKY/WX    TMP DP  RH WIND       PRES   REMARKS
CHATTANOOGA    CLEAR     76  73  91 CALM      29.98F
$$

SKY/WX REPORTED AS FAIR MEANS FEW OR NO CLOUDS BELOW
12 THOUSAND FEET.




USA.gov is the U.S. government's official web portal to all federal, state and local government web resources and services.